Regional Weather Roundup
Issued by NWS

Home | Current Version | Previous Version | Graphics & Text | Print | Product List | Glossary On
Versions: 1 2 3 4 5 6 7 8 9 10 11 12 13 14 15 16 17 18 19 20 21 22 23 24 25 26 27 28 29 30 31 32 33 34 35 36 37 38 39 40 41 42 43 44 45 46 47 48 49 50
000
ASUS43 KLSX 292159
RWRMO

WEATHER SUMMARY FOR MISSOURI
NATIONAL WEATHER SERVICE SPRINGFIELD MO
500 PM CDT WED OCT 29 2014

NOTE: "FAIR" INDICATES FEW OR NO CLOUDS BELOW 12,000 FEET WITH NO
       SIGNIFICANT WEATHER AND/OR OBSTRUCTIONS TO VISIBILITY.
       CURRENT SKY AND/OR WEATHER CONDITIONS ARE NOT AVAILABLE FOR
       CHILLICOTHE AND FARMINGTON.

MOZ001>031-035>038-043-044-053-054-292300-
...NORTHERN AND WESTERN MISSOURI...

CITY           SKY/WX    TMP DP  RH WIND       PRES   REMARKS
KANSAS CTY INT SUNNY     60  32  34 CALM      30.15F
KANSAS C DTWN  SUNNY     62  29  28 CALM      30.15F
LEE`S SUMMIT   SUNNY     61  31  32 CALM      30.16F
ST JOSEPH      SUNNY     60  30  32 CALM      30.14F
KIRKSVILLE     SUNNY     55  36  48 W6        30.16S

$$
MOZ066>068-077>081-088>096-101>105-292300-
...SOUTHWEST MISSOURI...

CITY           SKY/WX    TMP DP  RH WIND       PRES   REMARKS
SPRINGFIELD    SUNNY     62  33  33 NW7       30.16F
JOPLIN         SUNNY     66  36  32 CALM      30.17F

$$
MOZ032>034-039>042-045>050-055>058-069>072-292300-
...CENTRAL MISSOURI...

CITY           SKY/WX    TMP DP  RH WIND       PRES   REMARKS
COLUMBIA       SUNNY     58  33  39 W7        30.16F
JEFFERSON CITY SUNNY     59  30  33 NW8       30.16F
ROLLA          SUNNY     57  29  34 NW9       30.15S
SEDALIA        SUNNY     59  31  34 W5        30.17F
OSAGE BEACH    SUNNY     61  28  29 NW3       30.16F

$$
MOZ051-052-059>065-292300-
...EAST CENTRAL MISSOURI...

CITY           SKY/WX    TMP DP  RH WIND       PRES   REMARKS
ST LOUIS INTL  MOSUNNY   58  35  42 NW10      30.15S
SPIRIT OF STL  SUNNY     57  35  43 NW9       30.15S
ST CHARLES     SUNNY     57  35  43 NW9       30.15S

$$
MOZ072>076-082>087-097>100-106>115-292300-
...SOUTH CENTRAL AND SOUTHEAST MISSOURI...

CITY           SKY/WX    TMP DP  RH WIND       PRES   REMARKS
CAPE GIRARDEAU SUNNY     62  30  29 NW14      30.13S
FARMINGTON     SUNNY     59  28  31 NW9       30.16S
POPLAR BLUFF   SUNNY     65  24  21 NW12      30.12S
WEST PLAINS    SUNNY     64  30  27 VRB7      30.15F

$$



USA.gov is the U.S. government's official web portal to all federal, state and local government web resources and services.